Terminal Aerodrome Forecast
Issued by NWS Pittsburgh, PA

Current Version | Previous Version | Graphics & Text | Print | Product List | Glossary On
Versions: 1 2 3 4 5 6 7 8 9 10 11 12 13 14 15 16 17 18 19 20 21 22 23 24 25 26 27
000
FTUS41 KPBZ 010707 AAA
TAFPIT
TAF AMD
KPIT 010707Z 0107/0212 VRB05KT 6SM -RA OVC060
      TEMPO 0107/0111 2SM -RA BR BKN005
     FM011200 35006KT P6SM BKN100
     FM011700 01006KT P6SM SCT050
     FM020100 VRB05KT P6SM SKC=

USA.gov is the U.S. government's official web portal to all federal, state and local government web resources and services.